RH
93 94 92 91 94 93 92 95 93 94 92 92 92 94 94 93 83 79 81 74 75 73
97 96 95 96 96 97 96 96 97 97 98 97 97 93 91 92 88 82 84 80 73 74
97 96 96 95 96 94 94 96 98 98 98 96 95 93 91 92 88 87 91 90 86 86
98 98 99 97 96 98 98 98 97 95 94 94 94 94 94 94 94 94 94 92 87 89
97 97 98 98 98 97 97 95 94 94 93 92 93 94 93 94 93 93 92 93 94 95
98 97 99 99 97 96 96 96 94 93 94 94 94 95 97 96 97 96 95 94 93 92
98 98 99 98 98 98 96 97 97 94 94 95 95 96 96 96 97 96 95 94 94 94
98 98 98 98 98 98 97 98 97 98 98 98 97 94 96 97 97 97 97 98 97 98
98 98 99 99 99 98 98 98 98 99 98 98 97 98 98 93 94 94 86 76 75 76
98 98 98 98 98 98 99 99 99 99 98 98 99 98 97 96 90 76 74 72 67 60
98 98 98 97 98 98 98 99 99 98 99 99 98 98 98 89 78 81 78 72 69 67
98 99 99 99 99 99 98 98 97 98 99 98 98 97 84 76 78 82 84 74 68 60
100 100 100 100 99 99 96 96 95 97 97 96 98 99 89 80 80 84 85 77 67 60
100 100 100 100 99 98 98 98 98 96 98 96 93 98 95 92 92 92 90 89 88 79
Wind_Speed
4 5 5 6 4 4 3 4 6 7 6 5 5 9 5 6 2 3 4 6 5 5
7 6 6 6 6 5 8 8 9 6 6 9 11 3 9 7 10 9 6 6 7 6
8 7 5 8 11 11 9 10 10 11 12 10 12 10 9 7 6 9 7 7 9 6
5 6 4 5 5 7 9 10 11 12 13 14 12 10 12 9 8 10 9 9 9 8
5 5 5 1 3 7 9 9 13 13 13 12 12 12 10 10 7 9 10 8 9 8
3 4 4 4 3 3 4 4 10 12 15 15 15 12 12 10 8 6 6 8 9 8
5 5 3 4 4 5 6 8 4 7 11 13 13 12 11 11 10 8 7 6 8 7
6 6 5 4 4 5 5 8 9 11 9 10 10 8 10 10 10 10 8 6 7 6
8 7 4 5 4 5 6 7 7 7 9 10 6 16 16 12 9 10 9 8 7 6
10 6 6 6 6 5 5 6 7 6 8 9 9 17 18 17 9 10 10 10 9 8
8 5 5 6 7 7 6 6 6 6 6 8 7 15 17 18 11 10 9 8 7 8
8 7 6 6 6 6 7 7 6 6 8 8 8 15 16 12 9 10 10 8 7 7
8 7 6 5 5 3 4 5 6 7 7 12 9 15 15 11 6 9 8 7 7 10
7 7 7 7 5 6 6 7 6 7 5 7 7 7 16 15 7 6 6 6 5 4
Wind_Direction
229 185 199 198 191 193 165 112 120 106 101 87 79 109 73 92 29 71 105 128 126 132
285 199 194 164 144 136 133 135 125 121 117 121 111 129 126 141 142 138 122 121 117 118
314 287 217 175 171 174 172 169 160 150 138 139 137 140 117 125 138 127 133 122 119 114
308 303 256 219 198 175 159 159 155 154 144 147 140 140 139 148 142 131 131 128 127 122
348 347 334 326 193 173 174 175 157 153 146 137 138 131 131 132 136 140 140 129 129 128
63 44 30 16 58 100 133 175 150 149 143 141 138 135 123 124 129 134 136 133 131 129
123 84 56 56 71 103 114 123 134 134 134 128 125 128 129 132 125 129 120 122 118 133
100 90 93 76 87 95 110 115 120 110 103 105 120 123 131 131 131 126 120 118 119 122
113 96 89 92 94 91 108 105 111 131 125 128 111 130 129 132 124 118 123 132 112 132
102 131 139 122 100 90 83 83 81 104 110 109 121 136 135 127 123 129 128 123 112 106
115 130 132 122 113 105 94 94 97 92 96 101 115 134 130 125 123 116 107 108 113 120
132 142 138 133 134 134 136 129 119 118 116 112 125 132 133 116 115 114 115 106 106 124
125 131 133 127 128 104 109 115 122 116 115 129 131 149 134 121 120 117 110 102 115 135
128 142 144 136 134 136 129 120 116 117 108 121 128 138 138 126 113 112 124 130 130 139